Location: Huesca
(42.1318°N, 0.4078°W)
Time: 14:03:20
(UTC+02:00)

Vanguard 2 - All Passes

Search period start: 19 July 2024 00:00
Search period end: 29 July 2024 00:00
Orbit: 552 x 2913 km, 32.9° (Epoch: 19 July)

Date Brightness Start Highest point End Pass type
(mag) Time Alt. Az. Time Alt. Az. Time Alt. Az.
19 Jul - 01:25:55 10° SW 01:29:50 30° S 01:35:10 10° ESE night (unlit)
19 Jul - 03:32:38 10° WSW 03:37:36 31° S 03:44:58 10° SE visible
19 Jul - 05:41:01 10° WSW 05:46:10 19° SSW 05:53:00 10° SSE visible
19 Jul - 23:34:04 10° SSW 23:36:40 16° SSE 23:39:31 10° ESE visible
20 Jul - 01:39:54 10° WSW 01:43:50 30° S 01:49:14 10° ESE night (unlit)
20 Jul - 03:46:56 10° WSW 03:51:42 26° S 03:58:32 10° SE visible
20 Jul - 05:56:32 10° SW 06:00:19 14° SSW 06:04:50 10° S visible
20 Jul - 23:47:37 10° SSW 23:50:35 20° SSE 23:53:55 10° ESE visible
21 Jul - 01:53:58 10° WSW 01:57:52 29° S 02:03:12 10° ESE night (unlit)
21 Jul - 04:01:23 10° WSW 04:05:48 21° SSW 04:11:50 10° SSE visible
22 Jul - 00:01:22 10° SW 00:04:33 23° S 00:08:09 10° ESE visible
22 Jul - 02:08:05 10° WSW 02:11:55 26° S 02:17:02 10° SE night (unlit)
22 Jul - 04:16:08 10° SW 04:19:54 16° SSW 04:24:41 10° SSE visible
22 Jul - 22:09:32 10° S 22:11:21 12° SSE 22:13:06 10° SE visible
23 Jul - 00:15:15 10° SW 00:18:31 24° S 00:22:16 10° ESE visible
23 Jul - 02:22:19 10° WSW 02:25:57 23° S 02:30:42 10° SE night (unlit)
23 Jul - 04:31:41 10° SW 04:33:59 12° SSW 04:36:38 10° S visible
23 Jul - 22:22:40 10° SSW 22:25:18 16° SSE 22:27:49 10° SE visible
24 Jul - 00:29:13 10° SW 00:32:30 24° S 00:36:16 10° SE visible
24 Jul - 02:36:43 10° WSW 02:40:00 18° SSW 02:44:06 10° SSE night (unlit)
24 Jul - 22:36:13 10° SW 22:39:16 19° S 22:42:10 10° ESE visible
25 Jul - 00:43:19 10° WSW 00:46:29 23° S 00:50:10 10° SE visible
25 Jul - 02:51:28 10° SW 02:54:02 14° SSW 02:57:06 10° SSE night (unlit)
25 Jul - 20:43:49 10° S 20:45:50 12° SSE 20:47:41 10° SE daylight
25 Jul - 22:49:57 10° SW 22:53:14 22° S 22:56:21 10° ESE visible
26 Jul - 00:57:29 10° WSW 01:00:29 20° S 01:03:55 10° SE visible
26 Jul - 20:56:38 10° SSW 20:59:51 16° SSE 21:02:35 10° SE daylight
26 Jul - 23:03:51 10° SW 23:07:12 23° S 23:10:24 10° SE visible
27 Jul - 01:11:49 10° SW 01:14:28 17° SSW 01:17:26 10° SSE night (unlit)
27 Jul - 21:10:00 10° SW 21:13:51 20° S 21:17:01 10° ESE daylight
27 Jul - 23:17:51 10° WSW 23:21:11 23° S 23:24:22 10° SE visible
28 Jul - 01:26:29 10° SW 01:28:26 13° SSW 01:30:34 10° SSE night (unlit)
28 Jul - 19:16:40 10° SSW 19:20:05 14° SSE 19:22:56 10° SE daylight
28 Jul - 21:23:38 10° SW 21:27:51 23° S 21:31:15 10° ESE daylight
28 Jul - 23:31:56 10° WSW 23:35:08 21° S 23:38:12 10° SE visible
